Location: *
(38.9555°S, 57.3572°E)
Time: 01:54:58
(UTC+00:00)

CZ-4B R/B - Pass Details

Date: 15 July 2020
Orbit: 488 x 651 km, 97.9° (Epoch: 06 August)

Event Time Altitude Azimuth Distance (km) Brightness Sun altitude
Rises 13:31:09 0° 174° (S) 2,802 6.1 -5.0°
Reaches altitude 10° 13:33:24 10° 179° (S) 1,868 5.3 -5.4°
Maximum altitude 13:37:17 49° 253° (WSW) 709 3.8 -6.1°
Drops below altitude 10° 13:40:57 10° 328° (NNW) 1,756 6.3 -6.7°
Sets 13:43:01 0° 334° (NNW) 2,614 7.1 -7.1°
